Location: Krasnoyarskiy
(51.1133°N, 71.6497°E)
Time: 23:14:58
(UTC+00:00)

Cosmos 1441 Rocket - Pass Details

Date: 27 September 2022
Orbit: 489 x 532 km, 81.1° (Epoch: 03 December)

Event Time Altitude Azimuth Distance (km) Brightness Sun altitude
Rises 00:17:47 0° 205° (SSW) 2,556 6.4 -8.5°
Reaches altitude 10° 00:19:56 10° 211° (SSW) 1,682 5.4 -8.2°
Maximum altitude 00:23:31 48° 287° (WNW) 653 3.3 -7.6°
Drops below altitude 10° 00:27:09 10° 3° (N) 1,710 6.0 -7.1°
Sets 00:29:21 0° 9° (N) 2,605 7.0 -6.7°
